659  
ASUS42 KILM 130612  
RWRILM  
RWRILM  
REGIONAL HOURLY WEATHER ROUNDUP  
NATIONAL WEATHER SERVICE WILMINGTON NC  
200 AM EDT SAT AUG 13 2022  
 
NOTE: "FAIR" INDICATES FEW OR NO CLOUDS BELOW 12,000 FEET WITH NO  
SIGNIFICANT WEATHER AND/OR S TO VISIBILITY
.  
   
..............WFO WILMINGTON COUNTY WARNING AREA............
 
 
   
.....COASTAL NC AND SC COUNTIES...
 
 
 
CITY SKY/WX TMP DP RH WIND PRES REMARKS
 
WILMINGTON CLEAR 67 65 93 CALM 30.05S  
N MYRTLE BEACH PTCLDY 68 68 100 N5 30.04F  
MYRTLE BEACH PTCLDY 71 70 96 N7 30.04F  
   
.....INLAND NC AND SC COUNTIES....
 
 
 
CITY SKY/WX TMP DP RH WIND PRES REMARKS
 
LUMBERTON NOT AVBL  
ELIZABETHTOWN CLEAR 67 66 98 CALM 30.07S  
WHITEVILLE CLEAR 66 65 96 CALM 30.07S  
FLORENCE PTCLDY 69 68 96 NE6 30.06F  
DARLINGTON PTCLDY 68 68 100 MISG 30.08S  
KINGSTREE FAIR 68 68 100 CALM 30.05F  
HARTSVILLE FAIR 68 66 94 CALM 30.07F  
BENNETTSVILLE FAIR 68 68 100 CALM 30.07S FOG  
CONWAY FAIR 68 68 100 NE3 30.04F  
GEORGETOWN FAIR 70 70 100 N6 30.03F  
MARION FAIR 66 63 88 CALM 30.06S  
   
...................REST OF NORTH CAROLINA...................
 
 
   
........EASTERN NC......
 
 
 
CITY SKY/WX TMP DP RH WIND PRES REMARKS
 
CAPE HATTERAS CLEAR 73 68 84 N6 30.02F  
JACKSONVILLE CLEAR 64 64 100 CALM 30.06F  
MOREHEAD CITY CLEAR 70 67 90 N3 30.04S  
KENANSVILLE MOCLDY 64 64 100 CALM 30.07S FOG  
NEW BERN PTCLDY 67 66 97 CALM 30.06F  
ELIZABETH CITY CLEAR 65 65 100 W5 30.04S FOG  
   
........CENTRAL NC......
 
 
 
CITY SKY/WX TMP DP RH WIND PRES REMARKS
 
RALEIGH DURHAM PTCLDY 63 62 97 CALM 30.09S  
ROCKY MOUNT CLEAR 67 65 93 CALM 30.07S  
ROANOKE RAPIDS NOT AVBL  
FAYETTEVILLE CLEAR 68 66 93 CALM 30.06S  
HOFFMAN CLEAR 67 66 99 CALM 30.06R  
   
........WESTERN NC......
 
 
 
CITY SKY/WX TMP DP RH WIND PRES REMARKS
 
CHARLOTTE PTCLDY 72 64 76 E7 30.10S  
GREENSBORO PTCLDY 66 62 87 CALM 30.11S  
HICKORY NOT AVBL  
BOONE NOT AVBL  
ASHEVILLE NOT AVBL  
   
....................REST OF SOUTH CAROLINA..................
 
 
   
........EASTERN SC......
 
 
 
CITY SKY/WX TMP DP RH WIND PRES REMARKS
 
CHARLESTON MOCLDY 72 71 97 N3 30.01F  
BEAUFORT MCAS RAIN 75 73 93 N8 30.00  
HILTON HEAD CLOUDY 75 75 100 CALM 30.00F  
   
........CENTRAL SC......
 
 
 
CITY SKY/WX TMP DP RH WIND PRES REMARKS
 
COLUMBIA PTCLDY 73 70 90 NE5 30.05F  
ORANGEBURG CLEAR 70 70 100 CALM 30.05F  
SUMTER SHAW CLEAR 69 68 94 CALM 30.04F  
   
........WESTERN SC......
 
 
 
CITY SKY/WX TMP DP RH WIND PRES REMARKS
 
GREENVILLE NOT AVBL  
ROCK HILL MOCLDY 69 65 86 CALM 30.11R  
ANDERSON PTCLDY 73 65 75 NE8 30.08S  
CLEMSON NOT AVBL  
GREENWOOD MOCLDY 68 67 96 NE3 30.09F  
 
   
..................COASTAL AND OFFSHORE REPORTS...............
 
 
   
...............LOCAL PIERS AND NC RESERVE.............
 
 
 
STATION/POSITION TIME SKY/WX TEMP WIND PRES VSBY
 
AIR SEA DIR/SP/G  
(UTC) (F) (DEG/KT/KT) (MB) (MI)  
JOHNY MRCER PIER 0530 70 78 360/ 6/ 10 1017.1F  
NC RESRV MASNBRO NOT AVBL  
OCEAN CREST PIER NOT AVBL  
SPRINGMAID PIER 0530 71 360/ 9/ 10 1018.2F  
 
   
...............COASTAL AND OFFSHORE BUOYS.............
 
 
 
STATION/POSITION TIME SKY/WX TEMP WIND PRES VSBY
 
AIR SEA DIR/SP/G  
(UTC) (F) (DEG/KT/KT) (MB) (MI)  
DIMNDSHOAL 41025 0550 350/ 12/ 16 1016.1F  
CAPE LOOKOUT 0500 72 350/ 8/ 9 1017.6S  
ONSLOW BAY 41036 NOT AVBL  
ONSLOW BAY 41064 0508 76 83 40/ 12/ 16 1017.4R  
ONSLOW BAY 41159 0556 83 N/A  
WVE H/P(F/S)= 3/ 7  
 
MASNBO INL 41110 0556 80 N/A  
WVE H/P(F/S)= 2/ 7  
 
WILM HARBR 41108 0530 83 N/A  
WVE H/P(F/S)= 3/ 6  
 
27SE WRITB 41037 0508 76 82 30/ 8/ 12 1017.4R  
FRYING PAN 41013 0550 77 80 50/ 10/ 14 1016.4F  
WVE H/P(F/S)= 3/ 6 SWL H/P/D(F/S/D)= 3/210/ 6  
 
SUNST NRSH 41024 0508 72 83 30/ 8/ 12 1017.4F  
CAPRS NRSH 41029 0508 76 83 10/ 12/ 16 1016.3F  
EDISTO 41004 0600 81 84 240/ 12/ 14 1015.3  
 
   
.........OFFSHORE BUOYS BEYOND 100 NM OFFSHORE........
 
   
....IN A TRIANGLE---HAT TO BERMUDA TO BAHAMAS TO HAT..
 
 
 
 
STATION/POSITION TIME SKY/WX TEMP WIND PRES VSBY
 
AIR SEA DIR/SP/G  
(UTC) (F) (DEG/KT/KT) (MB) (MI)  
150E HAT 41001 0550 79 84 290/ 14/ 17 1015.0F  
WVE H/P(F/S)= 6/ 6 SWL H/P/D(F/S/D)= 2/ 70/12  
 
W BERMUDA 41048 0550 1018.5F  
ATLANTIC S 41049 0550 82 84 130/ 8/ 12 1017.2F  
WVE H/P(F/S)= 3/11 SWL H/P/D(F/S/D)= 2/ 70/11  
 
E BAHAMAS 41046 0600 83 100/ 4/ 6 1017.7  
NE BAHAMAS 41047 0550 82 130/ 8/ 10 1016.2F  
120E CANVRL41010 0550 84 86 200/ 6/ 10 1017.8R  
WVE H/P(F/S)= 3/ 8 SWL H/P/D(F/S/D)= 3/110/ 8  
 
END  
 
 
CLICK HERE TO GO TO PREVIOUS BULLETINS.

The Nexlab NC Page
The Nexlab SC Page Main Text Page